Waarnemingen

Advertentie
Mijn weer
Pajala A, Zweden (2095): temperatuur & dauwpunt: 19.10.2020 09:00:00 - 25.10.2020 09:00:00 (CET)Pajala A, Zweden (2095): windsnelheid & windstoten: 19.10.2020 09:00:00 - 25.10.2020 09:00:00 (CET)Pajala A, Zweden (2095): windrichting: 19.10.2020 09:00:00 - 25.10.2020 09:00:00 (CET)Pajala A, Zweden (2095): luchtdruk: 19.10.2020 09:00:00 - 25.10.2020 09:00:00 (CET)Pajala A, Zweden (2095): zicht: 19.10.2020 09:00:00 - 25.10.2020 09:00:00 (CET)Pajala A, Zweden (2095): neerslag: 19.10.2020 09:00:00 - 25.10.2020 09:00:00 (CET)
Datum & Tijd tt [°C] td [°C] ff [km/u] ff [kn] fx [km/u] fx [kn] dd ppp [hPa] vv [km] rr [mm]
25.10.2020 09:00:00 -1,5 -1,8 5 3 8 4 NNW 1007,3 4,9 0,0
25.10.2020 08:00:00 -2,5 -2,9 3 2 5 3 WZW 1006,3 13 0,0
25.10.2020 07:00:00 -2,1 -2,4 3 2 10 5 NNW 1005,9 13 0,0
25.10.2020 06:00:00 -2,6 -2,9 0 0 6 4 N 1005,3 14 0,0
25.10.2020 05:00:00 -1,6 -2,2 3 2 9 5 O 1004,4 9 0,0
25.10.2020 04:00:00 -0,7 -1,5 5 3 10 6 WNW 1004,0 4,8 0,0
25.10.2020 03:00:00 -0,3 -1,3 5 3 10 6 WNW 1003,6 8 0,0
25.10.2020 02:00:00 -0,5 -1,5 5 3 10 6 WNW 1003,4 11 0,0
25.10.2020 01:00:00 - - - - - - - - - -
25.10.2020 00:00:00 -0,3 -1,6 6 3 12 7 WNW 1002,3 12 0,0
24.10.2020 23:00:00 -1,6 -2,6 7 4 12 7 W 1001,7 11 0,0
24.10.2020 22:00:00 -0,4 -2,1 4 2 16 9 NW 1001,5 15 0,0
24.10.2020 21:00:00 -0,6 -2,3 7 4 15 8 WNW 1001,2 13 0,0
24.10.2020 20:00:00 -1,0 -3,0 4 2 14 8 NW 1000,6 50 0,0
24.10.2020 19:00:00 -1,1 -3,5 7 4 18 10 NW 999,9 10 0,0
24.10.2020 18:00:00 -0,8 -2,8 9 5 18 10 WNW 999,3 11 0,0
24.10.2020 17:00:00 -0,2 -2,1 8 5 19 10 WNW 999,1 9 0,0
24.10.2020 16:00:00 0,7 -1,2 8 4 19 10 WNW 998,7 15 0,0
24.10.2020 15:00:00 1,4 -0,8 12 7 24 13 NW 998,2 22 0,0
24.10.2020 14:00:00 1,6 -1,0 12 7 26 14 NW 997,6 14 0,0
24.10.2020 13:00:00 1,7 -1,2 13 7 25 13 WNW 997,1 11 0,0
24.10.2020 12:00:00 1,4 -1,2 11 6 29 16 WNW 996,6 10 0,0
24.10.2020 11:00:00 1,0 -1,4 13 7 29 15 WNW 996,0 11 0,0
24.10.2020 10:00:00 1,0 -1,4 14 7 23 12 WNW 995,5 10 0,0
24.10.2020 09:00:00 0,7 -1,4 12 7 26 14 WNW 994,7 15 0,0
24.10.2020 08:00:00 -0,2 -2,1 12 7 23 13 WNW 994,1 10 0,0
24.10.2020 07:00:00 0,1 -1,3 12 6 27 15 WNW 993,6 48 0,0
24.10.2020 06:00:00 0,3 -0,8 13 7 23 12 NW 993,1 14 0,0
24.10.2020 05:00:00 0,1 -0,5 11 6 22 12 WNW 992,6 6 0,1
24.10.2020 04:00:00 -0,7 -1,4 7 4 16 9 NW 992,4 3,0 0,0
24.10.2020 03:00:00 -1,8 -2,9 5 3 14 7 N 992,1 8 0,0
24.10.2020 02:00:00 -1,3 -2,3 7 4 16 9 WNW 991,5 9 0,0
24.10.2020 01:00:00 -1,4 -2,4 9 5 16 9 WNW 991,0 8 0,0
24.10.2020 00:00:00 -1,8 -2,6 7 4 14 8 WNW 990,7 50 0,0
23.10.2020 23:00:00 -1,9 -2,7 7 4 18 10 NW 990,5 7 0,0
23.10.2020 22:00:00 -1,6 -2,6 10 5 21 11 WNW 990,4 12 0,0
23.10.2020 21:00:00 -1,8 -2,6 9 5 20 11 WNW 990,0 3,7 0,1
23.10.2020 20:00:00 -2,1 -2,9 9 5 21 12 W 990,2 12 0,1
23.10.2020 19:00:00 -2,2 -3,2 12 6 22 12 W 990,4 3,6 0,1
23.10.2020 18:00:00 -2,6 -3,6 11 6 23 12 WZW 990,7 8 0,1
23.10.2020 17:00:00 -2,8 -3,6 10 5 19 10 W 990,9 9 0,1
23.10.2020 16:00:00 -3,2 -4,2 11 6 16 9 WZW 991,1 6 0,0
23.10.2020 15:00:00 -3,6 -4,9 7 4 14 8 WZW 991,4 10 0,0
23.10.2020 14:00:00 -3,1 -5,1 5 3 14 8 WZW 991,6 12 0,0
23.10.2020 13:00:00 -3,2 -5,1 8 4 14 8 WZW 991,7 12 0,0
23.10.2020 12:00:00 -3,1 -5,1 6 4 16 8 WZW 991,7 9 0,0
23.10.2020 11:00:00 -3,6 -5,4 5 3 21 11 W 991,7 15 0,0
23.10.2020 10:00:00 -3,9 -5,0 14 7 28 15 WNW 992,0 4,6 0,0
23.10.2020 09:00:00 -4,3 -4,8 10 6 19 10 W 991,9 11 0,0
23.10.2020 08:00:00 -4,8 -5,5 11 6 23 12 WNW 992,0 14 0,0
23.10.2020 07:00:00 -4,1 -4,9 7 4 18 10 W 992,0 13 0,0
23.10.2020 06:00:00 -3,3 -4,0 7 4 19 10 WNW 992,1 11 0,0
23.10.2020 05:00:00 -2,9 -3,6 11 6 17 9 WNW 992,4 14 0,0
23.10.2020 04:00:00 -2,6 -3,1 8 5 16 9 WNW 992,9 6 0,0
23.10.2020 03:00:00 -2,2 -2,6 8 4 13 7 WNW 993,3 4,2 0,0
23.10.2020 02:00:00 -1,8 -2,2 5 3 11 6 WNW 993,6 4,8 0,0
23.10.2020 01:00:00 -1,7 -2,1 7 4 11 6 NW 994,1 2,7 0,1
23.10.2020 00:00:00 -1,7 -2,1 6 4 11 6 NW 994,4 5 0,0
22.10.2020 23:00:00 -1,7 -2,1 6 3 11 6 NNW 995,1 4,4 0,0
22.10.2020 22:00:00 -1,6 -2,2 5 3 8 5 NNW 995,6 6 0,0
22.10.2020 21:00:00 -1,5 -2,1 5 3 11 6 NNW 995,9 15 0,0
22.10.2020 20:00:00 -1,5 -2,1 6 3 12 7 N 996,4 10 0,0
22.10.2020 19:00:00 -1,5 -2,1 8 4 13 7 N 996,9 8 0,0
22.10.2020 18:00:00 -1,5 -2,1 8 4 - - N 997,3 15 0,0
22.10.2020 17:00:00 -1,5 -1,9 8 4 12 7 N 997,8 10 0,0
22.10.2020 16:00:00 -1,5 -1,9 6 4 12 6 N 998,3 12 0,0
22.10.2020 15:00:00 -1,4 -1,8 6 4 11 6 N 998,7 9 0,0
22.10.2020 14:00:00 -1,4 -1,8 7 4 12 6 NNO 999,4 3,4 0,0
22.10.2020 13:00:00 -1,4 -1,8 6 4 11 6 NNO 999,8 6 0,0
22.10.2020 12:00:00 -1,5 -1,9 7 4 10 6 NO 1000,3 6 0,0
22.10.2020 11:00:00 -1,9 -2,3 8 4 15 8 NO 1000,7 7 0,0
22.10.2020 10:00:00 -2,4 -2,8 6 3 12 6 NNO 1001,2 3,2 0,1
22.10.2020 09:00:00 -2,9 -3,3 9 5 14 7 NO 1001,9 2,2 0,3
22.10.2020 08:00:00 -3,3 -3,7 8 4 13 7 NNO 1002,4 3,5 0,2
22.10.2020 07:00:00 -3,7 -4,2 9 5 14 7 NNO 1002,5 7 0,1
22.10.2020 06:00:00 -4,0 -4,5 8 4 16 8 NNO 1003,2 4,6 0,0
22.10.2020 05:00:00 -4,3 -4,8 9 5 17 9 NO 1003,7 6 0,4
22.10.2020 04:00:00 -4,6 -5,3 11 6 21 12 NNO 1004,5 4,8 0,2
22.10.2020 03:00:00 -4,9 -5,6 12 6 22 12 NO 1005,5 7 0,1
22.10.2020 02:00:00 -5,0 -5,7 14 7 23 12 NO 1006,4 13 0,5
22.10.2020 01:00:00 -4,9 -5,6 16 9 24 13 NO 1007,2 2,2 0,3
22.10.2020 00:00:00 -4,8 -5,3 11 6 21 12 NO 1008,1 5 0,4
21.10.2020 23:00:00 -4,6 -5,1 13 7 22 12 NO 1009,0 2,2 0,5
21.10.2020 22:00:00 -4,5 -5,0 9 5 17 9 NO 1009,8 2,2 0,1
21.10.2020 21:00:00 -4,6 -5,1 11 6 19 10 NO 1010,4 15 0,0
21.10.2020 20:00:00 -4,8 -5,3 11 6 17 9 NO 1011,0 2,8 0,0
21.10.2020 19:00:00 -5,0 -5,5 10 6 18 10 NO 1011,5 4,0 0,0
21.10.2020 18:00:00 -5,0 -5,5 10 5 17 9 ONO 1012,2 19 0,0
21.10.2020 17:00:00 -5,1 -5,6 9 5 16 9 NO 1012,7 4,7 0,0
21.10.2020 16:00:00 -5,2 -5,9 8 5 16 8 NO 1013,3 3,6 0,0
21.10.2020 15:00:00 -5,3 -6,0 9 5 15 8 NO 1013,8 3,0 0,0
21.10.2020 14:00:00 -5,5 -6,2 9 5 16 8 ONO 1014,2 8 0,0
21.10.2020 13:00:00 -5,5 -6,2 8 4 14 8 ONO 1014,6 7 0,0
21.10.2020 12:00:00 -5,2 -5,9 5 3 11 6 O 1015,1 8 0,0
21.10.2020 11:00:00 -5,2 -5,9 6 3 13 7 O 1015,5 12 0,0
21.10.2020 10:00:00 -5,1 -5,8 5 3 11 6 ONO 1015,7 4,2 0,0
21.10.2020 09:00:00 -5,4 -6,1 6 4 13 7 ONO 1015,8 11 0,0
21.10.2020 08:00:00 -5,1 -5,8 7 4 13 7 ONO 1015,9 2,1 0,0
21.10.2020 07:00:00 -5,1 -5,6 4 2 9 5 ZO 1015,9 1,9 0,0
21.10.2020 06:00:00 -5,4 -6,1 5 3 10 5 ZO 1016,0 5 0,0
21.10.2020 05:00:00 -5,2 -5,7 5 3 11 6 OZO 1016,3 5 0,0
21.10.2020 04:00:00 -4,9 -5,4 4 2 10 5 OZO 1016,4 6 0,0
21.10.2020 03:00:00 -4,7 -5,2 5 3 10 5 OZO 1016,8 10 0,0
21.10.2020 02:00:00 -4,5 -5,0 3 2 10 5 ZO 1017,2 12 0,0
21.10.2020 01:00:00 -4,3 -4,8 4 2 11 6 OZO 1017,3 6 0,0
21.10.2020 00:00:00 -4,4 -4,9 2 1 7 4 ZZO 1017,5 8 0,0
20.10.2020 23:00:00 -4,6 -5,1 4 2 9 5 O 1017,4 7 0,0
20.10.2020 22:00:00 -4,9 -5,4 5 3 10 5 NO 1017,8 1,3 0,0
20.10.2020 21:00:00 -4,8 -5,3 4 2 9 5 NO 1018,0 4,5 0,0
20.10.2020 20:00:00 -4,5 -5,0 6 4 10 5 ONO 1018,0 5 0,0
20.10.2020 19:00:00 -3,8 -4,2 8 4 12 6 NNO 1017,8 0,5 0,0
20.10.2020 18:00:00 -3,1 -3,4 4 2 11 6 NNO 1017,9 2,6 0,0
20.10.2020 17:00:00 -3,0 -3,4 6 4 11 6 N 1018,1 9 0,0
20.10.2020 16:00:00 -3,0 -3,5 5 3 10 5 N 1018,4 9 0,0
20.10.2020 15:00:00 -2,8 -3,3 7 4 14 8 N 1018,4 2,4 0,0
20.10.2020 14:00:00 -3,0 -4,1 8 5 11 6 N 1018,4 8 0,0
20.10.2020 13:00:00 -3,3 -4,1 7 4 11 6 WNW 1018,5 3,3 0,0
20.10.2020 12:00:00 -4,0 -4,7 6 3 13 7 NW 1018,5 9 0,0
20.10.2020 11:00:00 -4,4 -4,9 5 3 13 7 NW 1018,5 4,9 0,0
20.10.2020 10:00:00 -5,5 -6,5 7 4 13 7 NW 1018,4 16 0,0
20.10.2020 09:00:00 -6,5 -7,9 6 3 12 7 WNW 1018,1 12 0,0
20.10.2020 08:00:00 -7,1 -8,0 6 4 11 6 NW 1018,1 12 0,0
20.10.2020 07:00:00 -8,0 -9,1 5 3 11 6 NW 1017,8 5 0,0
20.10.2020 06:00:00 -7,4 -8,3 6 3 - - NW 1017,6 13 0,0
20.10.2020 05:00:00 -7,4 -8,5 3 2 9 5 WNW 1017,4 9 0,0
20.10.2020 04:00:00 -8,8 -9,6 0 0 10 5 N 1017,6 16 0,0
20.10.2020 03:00:00 -9,4 -10,5 3 2 13 7 NW 1017,7 14 0,0
20.10.2020 02:00:00 -8,0 -9,1 5 3 10 6 NW 1017,5 9 0,0
20.10.2020 01:00:00 -6,4 -7,5 8 4 13 7 NW 1017,2 8 0,0
20.10.2020 00:00:00 -6,5 -7,6 7 4 - - NW 1016,9 11 0,0
19.10.2020 23:00:00 -6,4 -7,5 8 5 12 6 NW 1016,8 11 0,0
19.10.2020 22:00:00 -6,2 -7,3 6 3 11 6 NW 1016,7 11 0,0
19.10.2020 21:00:00 -5,7 -6,8 6 3 13 7 WNW 1016,6 12 0,0
19.10.2020 20:00:00 -4,9 -6,1 7 4 15 8 NW 1016,4 14 0,0
19.10.2020 19:00:00 -6,3 -7,1 4 2 10 5 W 1016,2 19 0,0
19.10.2020 18:00:00 -3,7 -5,5 6 4 12 7 NW 1015,8 10 0,0
19.10.2020 17:00:00 -2,7 -4,4 6 4 20 11 NNW 1015,7 4,0 0,0
19.10.2020 16:00:00 -1,8 -3,8 9 5 24 13 N 1015,5 18 0,0
19.10.2020 15:00:00 - - - - - - - - 15 -
19.10.2020 14:00:00 -1,2 -3,7 11 6 24 13 N 1015,0 13 0,0
19.10.2020 13:00:00 -1,0 -3,5 13 7 22 12 N 1014,7 8 0,0
19.10.2020 12:00:00 -0,8 -3,5 14 8 22 12 N 1014,2 8 0,0
19.10.2020 11:00:00 -1,0 -3,8 12 7 19 10 N 1013,6 18 0,0
19.10.2020 10:00:00 -1,3 -4,0 11 6 18 10 N 1013,0 15 0,0
19.10.2020 09:00:00 -1,3 -3,8 12 6 29 16 N 1012,4 6 0,0

tt = temperatuur
td = dauwpunt
ff = windsnelheid
fx = windstoten
dd = windrichting
ppp = luchtdruk
vv = zicht
rr = neerslag

Weerstations in de omgeving